NPV7634 LIPE-EGNX

Flight info

Callsign NPV7634
Flight time N/A
Altitude 36000
Route LUPOS DCT OSBUL DCT ABESI DCT UTAVO DCT HOC DCT LUL DCT RLP DCT ROTSI DCT KOTUN DCT NINAL DCT ABNUR DCT DIMAL DCT ALESO T420 HEMEL
Aircraft MD11/H-SDE1E2E3FGHIJ2J3J4J5M1RWXY/LB1D1

Departure

Time 2026-05-04 15:42
Airport Bologna Guglielmo Marconi Airport (LIPE)

Arrival

Time N/A
Airport East Midlands Airport (EGNX)
Time Latitude Longitude Altitude Speed Heading
2026-05-04 14:53 44.53420 11.28226 138 ft 0 kts 206°
2026-05-04 15:23 44.53438 11.28238 138 ft 4 kts 206°
2026-05-04 15:23 44.53462 11.28255 138 ft 4 kts 206°
2026-05-04 15:23 44.53483 11.28270 138 ft 4 kts 216°
2026-05-04 15:24 44.53495 11.28317 138 ft 4 kts 298°
2026-05-04 15:24 44.53487 11.28338 138 ft 0 kts 296°
2026-05-04 15:28 44.53489 11.28333 138 ft 1 kts 296°
2026-05-04 15:29 44.53507 11.28305 138 ft 8 kts 321°
2026-05-04 15:30 44.53642 11.28046 138 ft 12 kts 297°
2026-05-04 15:30 44.53766 11.27700 138 ft 14 kts 297°
2026-05-04 15:31 44.53832 11.27519 138 ft 0 kts 297°
2026-05-04 15:37 44.53833 11.27515 138 ft 3 kts 297°
2026-05-04 15:37 44.53854 11.27458 138 ft 9 kts 296°
2026-05-04 15:38 44.53867 11.27421 138 ft 0 kts 296°
2026-05-04 15:38 44.53864 11.27429 138 ft 0 kts 296°
2026-05-04 15:39 44.53938 11.27320 138 ft 8 kts 334°
2026-05-04 15:40 44.53991 11.27260 138 ft 15 kts 322°
2026-05-04 15:40 44.54064 11.27217 137 ft 3 kts
2026-05-04 15:40 44.54096 11.27253 137 ft 10 kts 53°
2026-05-04 15:40 44.54093 11.27334 137 ft 0 kts 111°
2026-05-04 15:41 44.54070 11.27403 137 ft 29 kts 117°
2026-05-04 15:41 44.53828 11.28071 137 ft 123 kts 117°
2026-05-04 15:41 44.53325 11.29451 243 ft 182 kts 120°
2026-05-04 15:42 44.52790 11.30950 1274 ft 175 kts 112°
2026-05-04 15:42 44.52559 11.32604 2407 ft 172 kts 81°
2026-05-04 15:42 44.53135 11.34059 3378 ft 182 kts 41°
2026-05-04 15:42 44.54326 11.35105 3869 ft 216 kts 27°
2026-05-04 15:43 44.55710 11.36056 4915 ft 224 kts 26°
2026-05-04 15:43 44.57094 11.36972 6017 ft 225 kts 26°
2026-05-04 15:43 44.58505 11.37893 6872 ft 231 kts 26°
2026-05-04 15:43 44.59966 11.38838 7714 ft 233 kts 26°
2026-05-04 15:44 44.61450 11.39783 8529 ft 236 kts 25°
2026-05-04 15:44 44.62967 11.40743 9286 ft 242 kts 25°
2026-05-04 15:44 44.64492 11.41766 10022 ft 246 kts 33°
2026-05-04 15:44 44.65794 11.43406 10293 ft 262 kts 61°
2026-05-04 15:45 44.66286 11.45859 10578 ft 267 kts 97°
2026-05-04 15:45 44.65659 11.48223 11354 ft 259 kts 132°
2026-05-04 15:45 44.64213 11.49625 12249 ft 256 kts 165°
2026-05-04 15:45 44.62445 11.49670 13086 ft 260 kts 193°
2026-05-04 15:46 44.60713 11.48826 13927 ft 265 kts 202°
2026-05-04 15:46 44.59016 11.47784 14742 ft 268 kts 205°
2026-05-04 15:46 44.57316 11.46681 15516 ft 273 kts 209°
2026-05-04 15:46 44.55701 11.45143 15866 ft 294 kts 224°
2026-05-04 15:47 44.54469 11.42720 16020 ft 321 kts 246°
2026-05-04 15:47 44.53913 11.39565 16167 ft 347 kts 262°
2026-05-04 15:47 44.53722 11.36071 16316 ft 371 kts 266°
2026-05-04 15:47 44.53637 11.32402 16866 ft 380 kts 267°
2026-05-04 15:48 44.53557 11.28688 17620 ft 383 kts 267°
2026-05-04 15:48 44.53459 11.24991 18351 ft 387 kts 267°
2026-05-04 15:48 44.53191 11.17393 19580 ft 395 kts 265°
2026-05-04 15:49 44.53023 11.13551 20102 ft 398 kts 265°
2026-05-04 15:49 44.52853 11.09662 20687 ft 401 kts 265°
2026-05-04 15:49 44.52682 11.05748 21279 ft 404 kts 265°
2026-05-04 15:49 44.52508 11.01806 21859 ft 407 kts 265°
2026-05-04 15:50 44.52332 10.97821 22456 ft 411 kts 265°
2026-05-04 15:50 44.52153 10.93803 23059 ft 415 kts 265°
2026-05-04 15:50 44.51972 10.89745 23684 ft 419 kts 265°
2026-05-04 15:50 44.51785 10.85649 24242 ft 422 kts 265°
2026-05-04 15:51 44.51591 10.81536 24838 ft 424 kts 265°
2026-05-04 15:51 44.51394 10.77399 25442 ft 427 kts 265°
2026-05-04 15:51 44.51225 10.73235 26040 ft 430 kts 268°
2026-05-04 15:51 44.51284 10.69036 26614 ft 433 kts 274°
2026-05-04 15:52 44.51770 10.64860 27209 ft 437 kts 283°
2026-05-04 15:52 44.52760 10.60819 27782 ft 441 kts 292°
2026-05-04 15:52 44.54244 10.57034 28349 ft 446 kts 302°
2026-05-04 15:52 44.56155 10.53650 28941 ft 451 kts 310°
2026-05-04 15:53 44.58489 10.50660 29506 ft 457 kts 319°
2026-05-04 15:53 44.61104 10.48069 30011 ft 463 kts 323°
2026-05-04 15:53 44.63843 10.45660 30435 ft 467 kts 325°
2026-05-04 15:53 44.66630 10.43281 30865 ft 468 kts 325°
2026-05-04 15:54 44.69408 10.40888 31392 ft 467 kts 324°
2026-05-04 15:54 44.72160 10.38468 31935 ft 465 kts 324°
2026-05-04 15:54 44.74887 10.36024 32394 ft 465 kts 323°
2026-05-04 15:54 44.77605 10.33558 32890 ft 464 kts 323°
2026-05-04 15:55 44.80305 10.31092 33397 ft 462 kts 323°
2026-05-04 15:55 44.83001 10.28623 33865 ft 461 kts 323°
2026-05-04 15:55 44.85688 10.26160 34280 ft 460 kts 323°
2026-05-04 15:55 44.88372 10.23703 34679 ft 459 kts 323°
2026-05-04 15:56 44.91051 10.21252 35035 ft 458 kts 323°
2026-05-04 15:56 44.93684 10.18844 35421 ft 456 kts 323°
2026-05-04 15:56 44.96347 10.16405 35799 ft 455 kts 323°
2026-05-04 15:56 44.99005 10.13965 35995 ft 456 kts 323°
2026-05-04 15:57 45.04321 10.09085 36061 ft 455 kts 323°
2026-05-04 15:57 45.09624 10.04207 36063 ft 455 kts 323°
2026-05-04 15:58 45.14936 9.99310 36079 ft 456 kts 322°
2026-05-04 15:58 45.20256 9.94389 36066 ft 457 kts 322°
2026-05-04 15:59 45.25589 9.89451 36062 ft 457 kts 322°
2026-05-04 15:59 45.30896 9.84523 36065 ft 457 kts 322°
2026-05-04 16:00 45.36221 9.79567 36113 ft 457 kts 322°
2026-05-04 16:00 45.41554 9.74586 36140 ft 458 kts 322°
2026-05-04 16:01 45.46903 9.69585 36172 ft 460 kts 322°
2026-05-04 16:01 45.52229 9.64592 36174 ft 460 kts 322°
2026-05-04 16:02 45.57573 9.59536 36192 ft 461 kts 322°
2026-05-04 16:03 45.65608 9.51942 36179 ft 462 kts 322°
2026-05-04 16:03 45.70967 9.46879 36073 ft 462 kts 322°
2026-05-04 16:04 45.76335 9.41798 36073 ft 463 kts 322°
2026-05-04 16:04 45.84376 9.34160 36076 ft 464 kts 322°
2026-05-04 16:05 45.89764 9.29028 36076 ft 464 kts 322°
2026-05-04 16:06 45.97844 9.21320 36076 ft 464 kts 322°
2026-05-04 16:07 46.07707 9.11845 36081 ft 467 kts 322°
2026-05-04 16:07 46.16061 9.04532 36073 ft 473 kts 335°
2026-05-04 16:08 46.20295 9.02876 36077 ft 480 kts 348°
2026-05-04 16:09 46.36020 9.01509 36083 ft 484 kts 351°
2026-05-04 16:09 46.42473 8.99248 36085 ft 474 kts 332°
2026-05-04 16:10 46.47883 8.94042 36075 ft 464 kts 314°
2026-05-04 16:11 46.57227 8.81175 36075 ft 465 kts 314°
2026-05-04 16:12 46.71896 8.62612 36049 ft 468 kts 315°
2026-05-04 16:13 46.81721 8.50164 36023 ft 467 kts 315°
2026-05-04 16:14 46.91529 8.37666 35995 ft 469 kts 315°
2026-05-04 16:16 47.03815 8.21923 36046 ft 469 kts 314°
2026-05-04 16:17 47.16038 8.06083 35980 ft 471 kts 314°
2026-05-04 16:18 47.25876 7.93316 35989 ft 471 kts 314°
2026-05-04 16:19 47.38165 7.77289 36001 ft 472 kts 314°
2026-05-04 16:20 47.48356 7.59115 36017 ft 455 kts 284°
2026-05-04 16:22 47.51754 7.36436 36008 ft 452 kts 279°
2026-05-04 16:23 47.56172 7.09371 36028 ft 452 kts 279°
2026-05-04 16:25 47.60555 6.82145 36021 ft 453 kts 279°
2026-05-04 16:26 47.65584 6.50359 36001 ft 453 kts 278°
2026-05-04 16:28 47.69258 6.27620 36004 ft 455 kts 282°